Location: Unspecified
(0.0000°N, 0.0000°E)
Time: 04:40:03
(UTC+02:00)

Ariane H10+ - Visible Passes

Search period start: 25 September 2017 00:00
Search period end: 05 October 2017 00:00
Orbit: 313 x 31251 km, 6.7° (Epoch: 24 September)

Date Brightness Start Highest point End Pass type
(mag) Time Alt. Az. Time Alt. Az. Time Alt. Az.
25 Sep 5.4 04:33:31 10° W 05:53:41 62° S 05:59:11 10° ESE visible
25 Sep 7.8 15:26:30 10° W 21:58:48 67° E 23:07:46 56° E visible
26 Sep 7.1 19:03:41 10° W 21:01:01 70° WNW 03:28:39 10° ESE visible
27 Sep 6.3 15:54:00 10° E 19:24:06 26° E 20:45:24 13° E visible
27 Sep 11.4 23:44:34 10° W 00:32:06 13° W 01:38:39 10° W visible
28 Sep 4.5 06:45:25 17° WSW 06:55:33 51° S 06:59:05 10° ESE visible
28 Sep 8.6 16:27:29 10° W 23:01:42 87° E 00:07:40 77° ESE visible
29 Sep 6.4 20:10:21 10° W 22:02:01 52° W 04:29:04 10° ESE visible
30 Sep 6.8 13:56:01 10° W 20:24:50 44° E 21:45:17 30° E visible
01 Oct 8.1 17:29:16 10° W 20:59:15 86° NNW 01:07:34 80° WSW visible
02 Oct 6.3 21:23:09 10° W 23:02:40 34° W 05:29:01 10° ESE visible
03 Oct 7.6 14:56:11 10° W 21:27:08 63° E 22:45:10 48° E visible
